Location: Heilwood
(40.6210°N, 78.9150°W)
Time: 03:11:38
(UTC-04:00)

BREEZE-M DEB (TANK) - Visible Passes

Search period start: 25 May 2016 00:00
Search period end: 04 June 2016 00:00
Orbit: 282 x 15914 km, 49.5° (Epoch: 25 May)

Date Brightness Start Highest point End Pass type
(mag) Time Alt. Az. Time Alt. Az. Time Alt. Az.
25 May 8.1 03:30:46 10° WNW 05:58:44 72° WSW 06:50:27 10° SSE visible
25 May 8.0 22:11:30 10° SW 22:55:58 87° NW 01:37:47 10° E visible
26 May 8.1 03:36:57 10° WNW 06:03:29 69° WSW 06:55:00 10° SSE visible
26 May 8.1 22:16:27 10° SW 23:02:49 85° NNW 01:43:59 10° E visible
27 May 8.1 03:43:07 10° WNW 06:08:00 67° WSW 06:59:29 10° S visible
27 May 8.2 22:21:25 10° WSW 23:09:55 83° NNW 01:50:06 10° E visible
28 May 8.1 03:49:18 10° WNW 06:12:18 64° WSW 07:03:54 10° S visible
28 May 8.2 22:26:24 10° WSW 23:17:21 82° NNW 01:56:06 10° E visible
29 May 8.0 03:55:28 10° WNW 06:16:22 61° WSW 07:08:15 10° S visible
29 May 8.3 22:31:23 10° WSW 23:25:06 81° NNW 02:02:01 10° E visible
30 May 8.0 04:01:39 10° WNW 06:20:14 59° WSW 07:12:30 10° S visible
30 May 8.3 22:36:23 10° WSW 23:33:14 80° NNW 02:07:50 10° E visible
31 May 8.0 04:07:48 10° NW 06:23:54 56° W 07:16:42 10° S visible
31 May 8.4 22:41:25 10° WSW 23:41:47 79° NNW 02:13:34 10° ESE visible
01 Jun 8.0 04:13:59 10° NW 06:27:22 54° W 07:20:47 10° S visible
01 Jun 8.5 22:46:27 10° WSW 23:50:49 78° NNW 02:19:12 10° ESE visible
02 Jun 8.0 04:20:10 10° NW 06:30:38 51° W 07:24:47 10° SSW visible
02 Jun 8.5 22:51:30 10° WSW 00:00:20 78° N 02:24:44 10° ESE visible
03 Jun 8.0 04:26:21 10° NW 06:33:43 49° W 07:28:40 10° SSW visible
